Time,TemperatureF,DewpointF,PressureIn,WindDirection,WindDirectionDegrees,WindSpeedMPH,WindSpeedGustMPH,Humidity,HourlyPrecipIn,Conditions,Clouds,dailyrainin,SoftwareType,DateUTC
2013-03-07 00:00:00,35.1,26.7,30.21,NNW,338,0.7,5.4,71,0.00,,,0.00,WUHU216HW,2013-03-07 05:00:00,
2013-03-07 00:05:00,35.1,26.7,30.21,NW,315,3.1,3.1,71,0.00,,,0.00,WUHU216HW,2013-03-07 05:05:00,
2013-03-07 00:10:00,34.9,26.5,30.21,NNW,338,1.8,4.7,71,0.00,,,0.00,WUHU216HW,2013-03-07 05:10:00,
2013-03-07 00:15:00,34.9,26.7,30.21,NW,315,2.9,5.4,72,0.00,,,0.00,WUHU216HW,2013-03-07 05:15:00,
2013-03-07 00:20:00,34.9,26.7,30.21,NNE,23,2.2,5.4,72,0.00,,,0.00,WUHU216HW,2013-03-07 05:20:00,
2013-03-07 00:25:00,34.9,26.7,30.21,NNW,338,1.8,4.9,72,0.00,,,0.00,WUHU216HW,2013-03-07 05:25:00,
2013-03-07 00:30:00,34.9,26.7,30.21,North,0,2.9,4.7,72,0.00,,,0.00,WUHU216HW,2013-03-07 05:30:00,
2013-03-07 00:35:00,34.9,26.7,30.21,NW,315,7.8,7.8,72,0.00,,,0.00,WUHU216HW,2013-03-07 05:35:00,
2013-03-07 00:40:00,34.9,26.7,30.21,NNW,338,4.7,7.8,72,0.00,,,0.00,WUHU216HW,2013-03-07 05:40:00,
2013-03-07 00:45:00,34.9,26.7,30.21,NW,315,5.8,7.8,72,0.00,,,0.00,WUHU216HW,2013-03-07 05:45:00,
2013-03-07 00:50:00,34.9,26.7,30.21,NW,315,7.4,7.4,72,0.00,,,0.00,WUHU216HW,2013-03-07 05:50:00,
2013-03-07 00:55:00,34.9,26.7,30.21,NNW,338,1.8,7.4,72,0.00,,,0.00,WUHU216HW,2013-03-07 05:55:00,
2013-03-07 01:00:00,34.9,26.7,30.21,NNW,338,6.7,7.4,72,0.00,,,0.00,WUHU216HW,2013-03-07 06:00:00,
2013-03-07 01:05:00,34.9,26.7,30.22,WNW,293,6.3,6.7,72,0.00,,,0.00,WUHU216HW,2013-03-07 06:05:00,
2013-03-07 01:10:00,34.7,26.6,30.22,NNW,338,4.7,8.5,72,0.00,,,0.00,WUHU216HW,2013-03-07 06:10:00,
2013-03-07 01:15:00,34.9,26.7,30.22,WSW,248,2.7,8.5,72,0.00,,,0.00,WUHU216HW,2013-03-07 06:15:00,
2013-03-07 01:20:00,34.9,26.7,30.22,NW,315,2.5,5.8,72,0.00,,,0.00,WUHU216HW,2013-03-07 06:20:00,
2013-03-07 01:25:00,34.9,26.7,30.22,NW,315,1.3,5.8,72,0.00,,,0.00,WUHU216HW,2013-03-07 06:25:00,
2013-03-07 01:30:00,34.9,26.7,30.22,North,0,1.8,6.3,72,0.00,,,0.00,WUHU216HW,2013-03-07 06:30:00,
2013-03-07 01:35:00,34.7,26.6,30.22,West,270,2.9,6.3,72,0.00,,,0.00,WUHU216HW,2013-03-07 06:35:00,
2013-03-07 01:40:00,34.7,26.3,30.21,North,0,3.1,6.7,71,0.00,,,0.00,WUHU216HW,2013-03-07 06:40:00,
2013-03-07 01:45:00,34.7,26.3,30.21,NW,315,1.1,6.7,71,0.00,,,0.00,WUHU216HW,2013-03-07 06:45:00,
2013-03-07 01:50:00,34.7,26.6,30.21,NW,315,4.0,4.0,72,0.00,,,0.00,WUHU216HW,2013-03-07 06:50:00,
2013-03-07 01:55:00,34.7,26.3,30.21,NW,315,1.1,5.1,71,0.00,,,0.00,WUHU216HW,2013-03-07 06:55:00,
2013-03-07 02:00:00,34.7,26.3,30.21,NNW,338,1.1,5.1,71,0.00,,,0.00,WUHU216HW,2013-03-07 07:00:00,
2013-03-07 02:05:00,34.7,26.3,30.22,NNE,23,1.1,3.1,71,0.00,,,0.00,WUHU216HW,2013-03-07 07:05:00,
2013-03-07 02:10:00,34.7,26.3,30.22,NNE,23,0.9,3.4,71,0.00,,,0.00,WUHU216HW,2013-03-07 07:10:00,
2013-03-07 02:15:00,34.7,26.3,30.22,NNW,338,3.1,3.6,71,0.00,,,0.00,WUHU216HW,2013-03-07 07:15:00,
2013-03-07 02:20:00,34.6,26.4,30.22,NNW,338,1.1,4.0,72,0.00,,,0.00,WUHU216HW,2013-03-07 07:20:00,
2013-03-07 02:25:00,34.6,26.1,30.23,NNW,338,2.2,4.0,71,0.00,,,0.00,WUHU216HW,2013-03-07 07:25:00,
2013-03-07 02:30:00,34.6,26.4,30.23,NNW,338,5.8,5.8,72,0.00,,,0.00,WUHU216HW,2013-03-07 07:30:00,
2013-03-07 02:35:00,34.6,26.4,30.23,North,0,1.3,5.8,72,0.00,,,0.00,WUHU216HW,2013-03-07 07:35:00,
2013-03-07 02:40:00,34.6,26.4,30.23,NW,315,1.8,5.8,72,0.00,,,0.00,WUHU216HW,2013-03-07 07:40:00,
2013-03-07 02:45:00,34.6,26.4,30.22,NNW,338,2.0,4.3,72,0.00,,,0.00,WUHU216HW,2013-03-07 07:45:00,
2013-03-07 02:50:00,34.6,26.4,30.23,NNE,23,1.8,4.0,72,0.00,,,0.00,WUHU216HW,2013-03-07 07:50:00,
2013-03-07 02:55:00,34.6,26.4,30.23,North,0,2.5,4.0,72,0.00,,,0.00,WUHU216HW,2013-03-07 07:55:00,
2013-03-07 03:00:00,34.6,26.4,30.23,NNE,23,1.3,3.4,72,0.00,,,0.00,WUHU216HW,2013-03-07 08:00:00,
2013-03-07 03:05:00,34.6,26.4,30.23,NW,315,2.2,3.1,72,0.00,,,0.00,WUHU216HW,2013-03-07 08:05:00,
2013-03-07 03:10:00,34.4,26.2,30.23,NW,315,2.5,4.5,72,0.00,,,0.00,WUHU216HW,2013-03-07 08:10:00,
2013-03-07 03:15:00,34.4,26.2,30.24,WNW,293,2.2,4.5,72,0.00,,,0.00,WUHU216HW,2013-03-07 08:15:00,
2013-03-07 03:20:00,34.4,26.2,30.23,NNW,338,2.5,3.4,72,0.00,,,0.00,WUHU216HW,2013-03-07 08:20:00,
2013-03-07 03:25:00,34.4,26.2,30.23,North,0,2.0,5.4,72,0.00,,,0.00,WUHU216HW,2013-03-07 08:25:00,
2013-03-07 03:30:00,34.4,26.2,30.23,SW,225,1.8,5.4,72,0.00,,,0.00,WUHU216HW,2013-03-07 08:30:00,
2013-03-07 03:35:00,34.4,26.2,30.23,North,0,1.3,3.4,72,0.00,,,0.00,WUHU216HW,2013-03-07 08:35:00,
2013-03-07 03:40:00,34.2,25.8,30.23,North,0,1.1,2.7,71,0.00,,,0.00,WUHU216HW,2013-03-07 08:40:00,
2013-03-07 03:45:00,34.2,25.8,30.23,North,0,3.1,4.0,71,0.00,,,0.00,WUHU216HW,2013-03-07 08:45:00,
2013-03-07 03:50:00,34.2,25.8,30.22,North,0,1.1,4.9,71,0.00,,,0.00,WUHU216HW,2013-03-07 08:50:00,
2013-03-07 03:55:00,34.2,25.8,30.22,North,0,2.5,4.9,71,0.00,,,0.00,WUHU216HW,2013-03-07 08:55:00,
2013-03-07 04:00:00,34.2,25.8,30.22,North,0,2.2,4.5,71,0.00,,,0.00,WUHU216HW,2013-03-07 09:00:00,
2013-03-07 04:05:00,34.2,26.0,30.23,North,0,1.8,4.5,72,0.00,,,0.00,WUHU216HW,2013-03-07 09:05:00,
2013-03-07 04:10:00,34.2,25.8,30.23,North,0,0.7,3.8,71,0.00,,,0.00,WUHU216HW,2013-03-07 09:10:00,
2013-03-07 04:15:00,34.0,25.8,30.23,North,0,3.8,4.9,72,0.00,,,0.00,WUHU216HW,2013-03-07 09:15:00,
2013-03-07 04:20:00,34.0,25.8,30.23,ENE,68,0.9,4.9,72,0.00,,,0.00,WUHU216HW,2013-03-07 09:20:00,
2013-03-07 04:25:00,34.0,25.8,30.23,North,0,0.9,3.8,72,0.00,,,0.00,WUHU216HW,2013-03-07 09:25:00,
2013-03-07 04:30:00,34.0,25.8,30.23,ENE,68,1.1,2.5,72,0.00,,,0.00,WUHU216HW,2013-03-07 09:30:00,
2013-03-07 04:35:00,34.0,25.8,30.23,North,0,1.3,3.1,72,0.00,,,0.00,WUHU216HW,2013-03-07 09:35:00,
2013-03-07 04:40:00,34.0,26.2,30.23,North,0,1.6,3.4,73,0.00,,,0.00,WUHU216HW,2013-03-07 09:40:00,
2013-03-07 04:45:00,33.8,26.0,30.24,NW,315,3.4,5.1,73,0.00,,,0.00,WUHU216HW,2013-03-07 09:45:00,
2013-03-07 04:50:00,33.8,26.0,30.24,NNW,338,4.3,8.9,73,0.00,,,0.00,WUHU216HW,2013-03-07 09:50:00,
2013-03-07 04:55:00,33.8,26.0,30.24,NNE,23,3.4,8.9,73,0.00,,,0.00,WUHU216HW,2013-03-07 09:55:00,
2013-03-07 05:00:00,33.8,26.0,30.24,NW,315,1.1,5.4,73,0.00,,,0.00,WUHU216HW,2013-03-07 10:00:00,
2013-03-07 05:05:00,33.8,26.3,30.25,NNW,338,3.1,6.9,74,0.00,,,0.00,WUHU216HW,2013-03-07 10:05:00,
2013-03-07 05:10:00,33.8,26.3,30.25,WNW,293,2.2,6.9,74,0.00,,,0.00,WUHU216HW,2013-03-07 10:10:00,
2013-03-07 05:15:00,33.8,26.3,30.25,NNW,338,1.3,7.4,74,0.00,,,0.00,WUHU216HW,2013-03-07 10:15:00,
2013-03-07 05:20:00,33.8,26.3,30.25,NW,315,1.6,7.4,74,0.00,,,0.00,WUHU216HW,2013-03-07 10:20:00,
2013-03-07 05:25:00,33.8,26.3,30.25,North,0,1.8,5.4,74,0.00,,,0.00,WUHU216HW,2013-03-07 10:25:00,
2013-03-07 05:30:00,33.8,26.3,30.25,North,0,2.9,4.0,74,0.00,,,0.00,WUHU216HW,2013-03-07 10:30:00,
2013-03-07 05:35:00,33.8,26.0,30.25,ESE,113,1.1,3.4,73,0.00,,,0.00,WUHU216HW,2013-03-07 10:35:00,
2013-03-07 05:40:00,33.8,26.0,30.24,North,0,2.9,2.9,73,0.00,,,0.00,WUHU216HW,2013-03-07 10:40:00,
2013-03-07 05:45:00,33.8,26.0,30.25,NNW,338,1.6,3.4,73,0.00,,,0.00,WUHU216HW,2013-03-07 10:45:00,
2013-03-07 05:50:00,33.8,26.0,30.24,NNW,338,2.2,3.8,73,0.00,,,0.00,WUHU216HW,2013-03-07 10:50:00,
2013-03-07 05:56:00,33.8,26.0,30.24,NNW,338,1.6,4.3,73,0.00,,,0.00,WUHU216HW,2013-03-07 10:56:00,
2013-03-07 06:01:00,33.8,26.0,30.24,North,0,1.3,4.3,73,0.00,,,0.00,WUHU216HW,2013-03-07 11:01:00,
2013-03-07 06:06:00,33.8,26.0,30.24,North,0,2.5,2.7,73,0.00,,,0.00,WUHU216HW,2013-03-07 11:06:00,
2013-03-07 06:11:00,33.7,25.8,30.25,North,0,2.0,3.8,73,0.00,,,0.00,WUHU216HW,2013-03-07 11:11:00,
2013-03-07 06:16:00,33.7,26.2,30.26,North,0,1.8,3.8,74,0.00,,,0.00,WUHU216HW,2013-03-07 11:16:00,
2013-03-07 06:21:00,33.5,26.0,30.26,NNW,338,2.2,4.3,74,0.00,,,0.00,WUHU216HW,2013-03-07 11:21:00,
2013-03-07 06:26:00,33.5,26.0,30.26,North,0,1.6,4.3,74,0.00,,,0.00,WUHU216HW,2013-03-07 11:26:00,
2013-03-07 06:31:00,33.5,26.0,30.26,NNW,338,1.1,3.6,74,0.00,,,0.00,WUHU216HW,2013-03-07 11:31:00,
2013-03-07 06:36:00,33.5,26.0,30.26,North,0,0.4,3.1,74,0.00,,,0.00,WUHU216HW,2013-03-07 11:36:00,
2013-03-07 06:41:00,33.5,26.0,30.26,North,0,0.4,3.4,74,0.00,,,0.00,WUHU216HW,2013-03-07 11:41:00,
2013-03-07 06:46:00,33.5,26.0,30.26,NE,45,1.3,3.4,74,0.00,,,0.00,WUHU216HW,2013-03-07 11:46:00,
2013-03-07 06:51:00,33.5,26.0,30.25,West,270,0.0,4.0,74,0.00,,,0.00,WUHU216HW,2013-03-07 11:51:00,
2013-03-07 06:56:00,33.5,26.0,30.25,West,270,0.4,4.0,74,0.00,,,0.00,WUHU216HW,2013-03-07 11:56:00,
2013-03-07 07:01:00,33.5,26.0,30.26,NNW,338,2.7,4.7,74,0.00,,,0.00,WUHU216HW,2013-03-07 12:01:00,
2013-03-07 07:06:00,33.3,25.8,30.26,NNW,338,1.1,4.7,74,0.00,,,0.00,WUHU216HW,2013-03-07 12:06:00,
2013-03-07 07:11:00,33.3,25.8,30.26,NNW,338,2.2,4.7,74,0.00,,,0.00,WUHU216HW,2013-03-07 12:11:00,
2013-03-07 07:16:00,33.3,25.8,30.26,NNW,338,1.1,4.7,74,0.00,,,0.00,WUHU216HW,2013-03-07 12:16:00,
2013-03-07 07:21:00,33.1,25.7,30.27,NNW,338,0.4,2.5,74,0.00,,,0.00,WUHU216HW,2013-03-07 12:21:00,
2013-03-07 07:26:00,33.1,26.0,30.27,North,0,1.1,3.4,75,0.00,,,0.00,WUHU216HW,2013-03-07 12:26:00,
2013-03-07 07:31:00,33.1,26.0,30.27,NNW,338,3.4,4.7,75,0.00,,,0.00,WUHU216HW,2013-03-07 12:31:00,
2013-03-07 07:36:00,33.3,26.2,30.27,North,0,1.3,4.7,75,0.00,,,0.00,WUHU216HW,2013-03-07 12:36:00,
2013-03-07 07:41:00,33.3,26.2,30.27,WSW,248,0.4,3.4,75,0.00,,,0.00,WUHU216HW,2013-03-07 12:41:00,
2013-03-07 07:46:00,33.5,26.3,30.28,NW,315,1.3,2.5,75,0.00,,,0.00,WUHU216HW,2013-03-07 12:46:00,
2013-03-07 07:51:00,33.5,26.3,30.28,NE,45,0.7,2.5,75,0.00,,,0.00,WUHU216HW,2013-03-07 12:51:00,
2013-03-07 07:56:00,33.5,26.3,30.28,WNW,293,1.3,2.7,75,0.00,,,0.00,WUHU216HW,2013-03-07 12:56:00,
2013-03-07 08:01:00,33.5,26.3,30.28,North,0,1.6,6.5,75,0.00,,,0.00,WUHU216HW,2013-03-07 13:01:00,
2013-03-07 08:06:00,33.7,26.5,30.28,NNW,338,0.7,6.5,75,0.00,,,0.00,WUHU216HW,2013-03-07 13:06:00,
2013-03-07 08:11:00,33.8,26.6,30.28,NNW,338,0.7,3.4,75,0.00,,,0.00,WUHU216HW,2013-03-07 13:11:00,
2013-03-07 08:16:00,33.8,26.6,30.28,North,0,1.6,3.6,75,0.00,,,0.00,WUHU216HW,2013-03-07 13:16:00,
2013-03-07 08:21:00,34.0,26.8,30.28,NNW,338,2.7,5.4,75,0.00,,,0.00,WUHU216HW,2013-03-07 13:21:00,
2013-03-07 08:26:00,34.2,26.6,30.28,NNW,338,1.8,5.4,74,0.00,,,0.00,WUHU216HW,2013-03-07 13:26:00,
2013-03-07 08:31:00,34.2,26.6,30.29,NNW,338,0.7,3.1,74,0.00,,,0.00,WUHU216HW,2013-03-07 13:31:00,
2013-03-07 08:36:00,34.4,27.2,30.29,NNW,338,2.5,3.1,75,0.00,,,0.00,WUHU216HW,2013-03-07 13:36:00,
2013-03-07 08:41:00,34.6,27.4,30.29,NW,315,2.2,4.7,75,0.00,,,0.00,WUHU216HW,2013-03-07 13:41:00,
2013-03-07 08:46:00,34.7,27.5,30.29,NNW,338,1.8,4.7,75,0.00,,,0.00,WUHU216HW,2013-03-07 13:46:00,
2013-03-07 08:51:00,34.9,27.7,30.30,North,0,2.0,3.6,75,0.00,,,0.00,WUHU216HW,2013-03-07 13:51:00,
2013-03-07 08:57:00,35.3,27.7,30.30,NNW,338,4.7,7.4,74,0.00,,,0.00,WUHU216HW,2013-03-07 13:57:00,
2013-03-07 09:02:00,35.5,27.9,30.30,NNW,338,3.6,7.4,74,0.00,,,0.00,WUHU216HW,2013-03-07 14:02:00,
2013-03-07 09:07:00,35.6,27.8,30.31,NNE,23,4.7,6.3,73,0.00,,,0.00,WUHU216HW,2013-03-07 14:07:00,
2013-03-07 09:12:00,35.6,27.8,30.31,ESE,113,1.1,6.3,73,0.00,,,0.00,WUHU216HW,2013-03-07 14:12:00,
2013-03-07 09:17:00,35.6,27.8,30.31,NE,45,2.5,5.8,73,0.00,,,0.00,WUHU216HW,2013-03-07 14:17:00,
2013-03-07 09:22:00,35.8,28.0,30.31,NE,45,1.1,4.7,73,0.00,,,0.00,WUHU216HW,2013-03-07 14:22:00,
2013-03-07 09:27:00,36.2,28.4,30.30,North,0,4.0,5.1,73,0.00,,,0.00,WUHU216HW,2013-03-07 14:27:00,
2013-03-07 09:32:00,36.2,28.4,30.31,NNE,23,2.5,7.8,73,0.00,,,0.00,WUHU216HW,2013-03-07 14:32:00,
2013-03-07 09:37:00,36.4,28.2,30.30,North,0,4.5,7.8,72,0.00,,,0.00,WUHU216HW,2013-03-07 14:37:00,
2013-03-07 09:42:00,36.5,28.4,30.31,NW,315,4.7,6.5,72,0.00,,,0.00,WUHU216HW,2013-03-07 14:42:00,
2013-03-07 09:47:00,37.1,28.9,30.30,NNW,338,2.5,5.1,72,0.00,,,0.00,WUHU216HW,2013-03-07 14:47:00,
2013-03-07 09:52:00,37.4,29.3,30.30,NE,45,1.1,5.1,72,0.00,,,0.00,WUHU216HW,2013-03-07 14:52:00,
2013-03-07 09:57:00,37.8,29.3,30.30,NNW,338,0.4,5.4,71,0.00,,,0.00,WUHU216HW,2013-03-07 14:57:00,
2013-03-07 10:02:00,37.8,29.0,30.30,NNE,23,1.6,5.6,70,0.00,,,0.00,WUHU216HW,2013-03-07 15:02:00,
2013-03-07 10:07:00,38.0,29.1,30.30,NNW,338,5.4,5.6,70,0.00,,,0.00,WUHU216HW,2013-03-07 15:07:00,
2013-03-07 10:12:00,38.5,29.6,30.30,SW,225,1.3,8.1,70,0.00,,,0.00,WUHU216HW,2013-03-07 15:12:00,
2013-03-07 10:17:00,39.1,29.7,30.29,NNW,338,4.0,8.1,69,0.00,,,0.00,WUHU216HW,2013-03-07 15:17:00,
2013-03-07 10:22:00,39.4,30.1,30.29,SSW,203,2.2,4.7,69,0.00,,,0.00,WUHU216HW,2013-03-07 15:22:00,
2013-03-07 10:27:00,40.0,30.3,30.29,NE,45,2.7,4.7,68,0.00,,,0.00,WUHU216HW,2013-03-07 15:27:00,
2013-03-07 10:32:00,40.0,29.8,30.29,NNW,338,3.8,6.9,67,0.00,,,0.00,WUHU216HW,2013-03-07 15:32:00,
2013-03-07 10:37:00,40.0,29.8,30.29,ENE,68,2.2,6.9,67,0.00,,,0.00,WUHU216HW,2013-03-07 15:37:00,
2013-03-07 10:42:00,40.0,30.3,30.29,NW,315,5.4,5.4,68,0.00,,,0.00,WUHU216HW,2013-03-07 15:42:00,
2013-03-07 10:47:00,40.3,30.2,30.29,ESE,113,4.5,6.9,67,0.00,,,0.00,WUHU216HW,2013-03-07 15:47:00,
2013-03-07 10:52:00,40.0,29.8,30.29,ESE,113,4.7,7.4,67,0.00,,,0.00,WUHU216HW,2013-03-07 15:52:00,
2013-03-07 10:57:00,40.1,30.4,30.29,NNW,338,4.0,7.4,68,0.00,,,0.00,WUHU216HW,2013-03-07 15:57:00,
2013-03-07 11:02:00,40.9,31.2,30.29,North,0,2.5,6.7,68,0.00,,,0.00,WUHU216HW,2013-03-07 16:02:00,
2013-03-07 11:07:00,40.7,29.8,30.28,East,90,3.6,7.8,65,0.00,,,0.00,WUHU216HW,2013-03-07 16:07:00,
2013-03-07 11:12:00,40.3,30.2,30.28,NE,45,4.0,7.8,67,0.00,,,0.00,WUHU216HW,2013-03-07 16:12:00,
2013-03-07 11:17:00,40.3,30.2,30.28,North,0,2.7,7.2,67,0.00,,,0.00,WUHU216HW,2013-03-07 16:17:00,
2013-03-07 11:22:00,40.7,30.5,30.28,WNW,293,2.9,7.6,67,0.00,,,0.00,WUHU216HW,2013-03-07 16:22:00,
2013-03-07 11:27:00,41.0,30.9,30.28,NNE,23,3.1,7.6,67,0.00,,,0.00,WUHU216HW,2013-03-07 16:27:00,
2013-03-07 11:32:00,41.4,30.5,30.28,ESE,113,1.6,7.6,65,0.00,,,0.00,WUHU216HW,2013-03-07 16:32:00,
2013-03-07 11:37:00,41.8,31.6,30.28,East,90,4.5,7.6,67,0.00,,,0.00,WUHU216HW,2013-03-07 16:37:00,
2013-03-07 11:42:00,42.3,31.8,30.28,NNE,23,2.5,7.6,66,0.00,,,0.00,WUHU216HW,2013-03-07 16:42:00,
2013-03-07 11:47:00,42.8,31.5,30.28,ENE,68,4.3,7.6,64,0.00,,,0.00,WUHU216HW,2013-03-07 16:47:00,
2013-03-07 11:52:00,42.7,30.9,30.28,NE,45,5.8,7.2,63,0.00,,,0.00,WUHU216HW,2013-03-07 16:52:00,
2013-03-07 11:57:00,42.8,31.1,30.28,East,90,4.0,7.2,63,0.00,,,0.00,WUHU216HW,2013-03-07 16:57:00,
2013-03-07 12:02:00,42.8,31.5,30.28,ENE,68,4.0,6.9,64,0.00,,,0.00,WUHU216HW,2013-03-07 17:02:00,
2013-03-07 12:08:00,42.8,31.1,30.28,ESE,113,1.3,6.9,63,0.00,,,0.00,WUHU216HW,2013-03-07 17:08:00,
2013-03-07 12:13:00,42.8,31.1,30.28,NW,315,1.8,6.9,63,0.00,,,0.00,WUHU216HW,2013-03-07 17:13:00,
2013-03-07 12:18:00,42.8,31.1,30.28,NNW,338,2.7,6.9,63,0.00,,,0.00,WUHU216HW,2013-03-07 17:18:00,
2013-03-07 12:23:00,43.4,31.6,30.28,NE,45,4.0,6.9,63,0.00,,,0.00,WUHU216HW,2013-03-07 17:23:00,
2013-03-07 12:28:00,43.4,31.2,30.28,NNW,338,2.9,4.9,62,0.00,,,0.00,WUHU216HW,2013-03-07 17:28:00,
2013-03-07 12:33:00,43.6,31.4,30.28,North,0,2.5,6.5,62,0.00,,,0.00,WUHU216HW,2013-03-07 17:33:00,
2013-03-07 12:38:00,44.1,32.3,30.28,WNW,293,1.3,6.5,63,0.00,,,0.00,WUHU216HW,2013-03-07 17:38:00,
2013-03-07 12:43:00,44.6,32.4,30.28,ENE,68,6.9,6.9,62,0.00,,,0.00,WUHU216HW,2013-03-07 17:43:00,
2013-03-07 12:48:00,44.6,32.0,30.28,SSW,203,1.3,6.9,61,0.00,,,0.00,WUHU216HW,2013-03-07 17:48:00,
2013-03-07 12:53:00,44.6,32.0,30.28,NNE,23,3.4,6.9,61,0.00,,,0.00,WUHU216HW,2013-03-07 17:53:00,
2013-03-07 12:58:00,45.0,32.4,30.27,ESE,113,1.1,4.7,61,0.00,,,0.00,WUHU216HW,2013-03-07 17:58:00,
2013-03-07 13:03:00,45.4,31.4,30.27,NW,315,3.6,8.5,58,0.00,,,0.00,WUHU216HW,2013-03-07 18:03:00,
2013-03-07 13:08:00,45.4,31.9,30.27,NW,315,5.4,8.5,59,0.00,,,0.00,WUHU216HW,2013-03-07 18:08:00,
2013-03-07 13:13:00,45.5,32.5,30.27,ENE,68,2.5,6.9,60,0.00,,,0.00,WUHU216HW,2013-03-07 18:13:00,
2013-03-07 13:18:00,45.7,31.8,30.26,North,0,1.8,6.3,58,0.00,,,0.00,WUHU216HW,2013-03-07 18:18:00,
2013-03-07 13:23:00,46.3,33.1,30.26,SSW,203,0.9,5.1,60,0.00,,,0.00,WUHU216HW,2013-03-07 18:23:00,
2013-03-07 13:28:00,46.4,32.4,30.26,WNW,293,2.7,4.7,58,0.00,,,0.00,WUHU216HW,2013-03-07 18:28:00,
2013-03-07 13:33:00,46.6,32.6,30.25,North,0,0.9,5.8,58,0.00,,,0.00,WUHU216HW,2013-03-07 18:33:00,
2013-03-07 13:38:00,46.4,32.0,30.25,NW,315,1.8,6.0,57,0.00,,,0.00,WUHU216HW,2013-03-07 18:38:00,
2013-03-07 13:43:00,46.4,32.0,30.25,ENE,68,3.4,6.0,57,0.00,,,0.00,WUHU216HW,2013-03-07 18:43:00,
2013-03-07 13:48:00,46.3,31.8,30.25,North,0,5.4,6.3,57,0.00,,,0.00,WUHU216HW,2013-03-07 18:48:00,
2013-03-07 13:53:00,46.6,32.1,30.24,SE,135,4.0,6.3,57,0.00,,,0.00,WUHU216HW,2013-03-07 18:53:00,
2013-03-07 13:58:00,46.6,32.1,30.24,East,90,2.7,5.6,57,0.00,,,0.00,WUHU216HW,2013-03-07 18:58:00,
2013-03-07 14:03:00,46.6,32.1,30.23,North,0,2.5,6.9,57,0.00,,,0.00,WUHU216HW,2013-03-07 19:03:00,
2013-03-07 14:08:00,47.2,33.1,30.23,SE,135,3.4,6.9,58,0.00,,,0.00,WUHU216HW,2013-03-07 19:08:00,
2013-03-07 14:13:00,47.3,32.9,30.23,North,0,2.5,4.9,57,0.00,,,0.00,WUHU216HW,2013-03-07 19:13:00,
2013-03-07 14:18:00,47.3,32.9,30.23,NE,45,2.7,7.2,57,0.00,,,0.00,WUHU216HW,2013-03-07 19:18:00,
2013-03-07 14:23:00,47.5,33.0,30.23,SE,135,2.2,7.2,57,0.00,,,0.00,WUHU216HW,2013-03-07 19:23:00,
2013-03-07 14:28:00,47.5,32.6,30.23,WNW,293,1.8,6.7,56,0.00,,,0.00,WUHU216HW,2013-03-07 19:28:00,
2013-03-07 14:33:00,47.5,32.6,30.23,NNE,23,5.8,7.4,56,0.00,,,0.00,WUHU216HW,2013-03-07 19:33:00,
2013-03-07 14:38:00,47.7,32.7,30.23,North,0,0.4,7.4,56,0.00,,,0.00,WUHU216HW,2013-03-07 19:38:00,
2013-03-07 14:43:00,48.2,33.7,30.23,East,90,1.3,4.9,57,0.00,,,0.00,WUHU216HW,2013-03-07 19:43:00,
2013-03-07 14:48:00,48.6,33.6,30.23,North,0,2.5,6.9,56,0.00,,,0.00,WUHU216HW,2013-03-07 19:48:00,
2013-03-07 14:53:00,48.6,32.7,30.23,West,270,4.0,6.9,54,0.00,,,0.00,WUHU216HW,2013-03-07 19:53:00,
2013-03-07 14:58:00,48.6,33.6,30.23,NNE,23,1.8,6.3,56,0.00,,,0.00,WUHU216HW,2013-03-07 19:58:00,
2013-03-07 15:03:00,49.0,33.5,30.23,NE,45,4.5,8.3,55,0.00,,,0.00,WUHU216HW,2013-03-07 20:03:00,
2013-03-07 15:08:00,49.1,33.7,30.23,ENE,68,3.1,8.3,55,0.00,,,0.00,WUHU216HW,2013-03-07 20:08:00,
2013-03-07 15:13:00,49.1,34.1,30.23,East,90,3.6,4.7,56,0.00,,,0.00,WUHU216HW,2013-03-07 20:13:00,
2013-03-07 15:18:00,49.3,34.2,30.23,East,90,6.9,6.9,56,0.00,,,0.00,WUHU216HW,2013-03-07 20:18:00,
2013-03-07 15:23:00,49.1,33.7,30.22,East,90,1.3,6.9,55,0.00,,,0.00,WUHU216HW,2013-03-07 20:23:00,
2013-03-07 15:28:00,49.3,33.8,30.22,ESE,113,3.4,5.6,55,0.00,,,0.00,WUHU216HW,2013-03-07 20:28:00,
2013-03-07 15:33:00,49.9,34.3,30.22,ENE,68,1.1,5.6,55,0.00,,,0.00,WUHU216HW,2013-03-07 20:33:00,
2013-03-07 15:38:00,49.9,33.4,30.22,NE,45,3.4,5.4,53,0.00,,,0.00,WUHU216HW,2013-03-07 20:38:00,
2013-03-07 15:43:00,49.9,34.3,30.22,NE,45,3.4,5.4,55,0.00,,,0.00,WUHU216HW,2013-03-07 20:43:00,
2013-03-07 15:48:00,50.2,34.7,30.22,North,0,1.8,5.8,55,0.00,,,0.00,WUHU216HW,2013-03-07 20:48:00,
2013-03-07 15:53:00,50.6,34.5,30.22,NE,45,2.2,7.2,54,0.00,,,0.00,WUHU216HW,2013-03-07 20:53:00,
2013-03-07 15:58:00,50.9,34.4,30.22,SW,225,1.8,7.2,53,0.00,,,0.00,WUHU216HW,2013-03-07 20:58:00,
2013-03-07 16:03:00,50.9,33.9,30.22,WNW,293,3.1,5.8,52,0.00,,,0.00,WUHU216HW,2013-03-07 21:03:00,
2013-03-07 16:08:00,50.8,33.8,30.22,North,0,1.3,5.8,52,0.00,,,0.00,WUHU216HW,2013-03-07 21:08:00,
2013-03-07 16:13:00,50.8,34.2,30.22,ENE,68,1.1,5.1,53,0.00,,,0.00,WUHU216HW,2013-03-07 21:13:00,
2013-03-07 16:18:00,50.9,33.9,30.23,NNW,338,1.8,4.7,52,0.00,,,0.00,WUHU216HW,2013-03-07 21:18:00,
2013-03-07 16:23:00,51.3,34.8,30.23,NNW,338,1.3,4.7,53,0.00,,,0.00,WUHU216HW,2013-03-07 21:23:00,
2013-03-07 16:28:00,51.3,33.9,30.23,North,0,2.2,5.1,51,0.00,,,0.00,WUHU216HW,2013-03-07 21:28:00,
2013-03-07 16:33:00,50.9,33.5,30.23,ESE,113,0.9,6.0,51,0.00,,,0.00,WUHU216HW,2013-03-07 21:33:00,
2013-03-07 16:38:00,50.8,33.8,30.23,East,90,3.4,6.0,52,0.00,,,0.00,WUHU216HW,2013-03-07 21:38:00,
2013-03-07 16:43:00,50.4,33.9,30.23,ENE,68,2.0,4.9,53,0.00,,,0.00,WUHU216HW,2013-03-07 21:43:00,
2013-03-07 16:48:00,50.0,33.1,30.23,East,90,4.0,6.5,52,0.00,,,0.00,WUHU216HW,2013-03-07 21:48:00,
2013-03-07 16:53:00,50.0,33.1,30.23,NE,45,6.0,6.5,52,0.00,,,0.00,WUHU216HW,2013-03-07 21:53:00,
2013-03-07 16:58:00,50.0,33.6,30.23,WNW,293,2.7,6.5,53,0.00,,,0.00,WUHU216HW,2013-03-07 21:58:00,
2013-03-07 17:03:00,50.0,34.0,30.23,ENE,68,1.3,4.7,54,0.00,,,0.00,WUHU216HW,2013-03-07 22:03:00,
2013-03-07 17:08:00,50.0,33.6,30.23,NNW,338,2.7,6.9,53,0.00,,,0.00,WUHU216HW,2013-03-07 22:08:00,
2013-03-07 17:13:00,50.0,34.0,30.23,East,90,3.6,6.9,54,0.00,,,0.00,WUHU216HW,2013-03-07 22:13:00,
2013-03-07 17:18:00,49.9,33.8,30.23,ENE,68,5.4,5.4,54,0.00,,,0.00,WUHU216HW,2013-03-07 22:18:00,
2013-03-07 17:23:00,49.3,33.3,30.23,ENE,68,2.5,5.4,54,0.00,,,0.00,WUHU216HW,2013-03-07 22:23:00,
2013-03-07 17:28:00,49.3,33.3,30.23,ENE,68,6.5,6.5,54,0.00,,,0.00,WUHU216HW,2013-03-07 22:28:00,
2013-03-07 17:33:00,49.0,33.5,30.23,ENE,68,4.0,6.9,55,0.00,,,0.00,WUHU216HW,2013-03-07 22:33:00,
2013-03-07 17:38:00,48.6,33.1,30.23,ENE,68,3.1,6.9,55,0.00,,,0.00,WUHU216HW,2013-03-07 22:38:00,
2013-03-07 17:43:00,48.6,33.1,30.23,North,0,3.8,4.7,55,0.00,,,0.00,WUHU216HW,2013-03-07 22:43:00,
2013-03-07 17:48:00,48.2,32.8,30.23,SSW,203,1.8,3.8,55,0.00,,,0.00,WUHU216HW,2013-03-07 22:48:00,
2013-03-07 17:53:00,48.1,33.0,30.24,SE,135,2.7,3.8,56,0.00,,,0.00,WUHU216HW,2013-03-07 22:53:00,
2013-03-07 17:58:00,48.1,33.0,30.24,NNW,338,2.2,4.5,56,0.00,,,0.00,WUHU216HW,2013-03-07 22:58:00,
2013-03-07 18:03:00,47.9,32.9,30.24,East,90,1.3,4.5,56,0.00,,,0.00,WUHU216HW,2013-03-07 23:03:00,
2013-03-07 18:08:00,47.7,32.7,30.24,ENE,68,1.8,3.6,56,0.00,,,0.00,WUHU216HW,2013-03-07 23:08:00,
2013-03-07 18:13:00,47.3,32.4,30.24,East,90,0.9,3.4,56,0.00,,,0.00,WUHU216HW,2013-03-07 23:13:00,
2013-03-07 18:18:00,47.0,32.5,30.24,West,270,0.9,3.4,57,0.00,,,0.00,WUHU216HW,2013-03-07 23:18:00,
2013-03-07 18:23:00,46.8,32.3,30.24,ESE,113,2.5,3.1,57,0.00,,,0.00,WUHU216HW,2013-03-07 23:23:00,
2013-03-07 18:28:00,46.4,32.0,30.24,ESE,113,1.1,2.7,57,0.00,,,0.00,WUHU216HW,2013-03-07 23:28:00,
2013-03-07 18:33:00,46.1,31.6,30.25,NNE,23,2.7,2.7,57,0.00,,,0.00,WUHU216HW,2013-03-07 23:33:00,
2013-03-07 18:38:00,45.9,31.5,30.25,East,90,0.4,2.7,57,0.00,,,0.00,WUHU216HW,2013-03-07 23:38:00,
2013-03-07 18:43:00,45.5,31.1,30.25,NNE,23,3.4,4.0,57,0.00,,,0.00,WUHU216HW,2013-03-07 23:43:00,
2013-03-07 18:48:00,45.2,31.2,30.25,NNE,23,1.1,4.0,58,0.00,,,0.00,WUHU216HW,2013-03-07 23:48:00,
2013-03-07 18:53:00,45.0,31.2,30.25,NNW,338,0.9,2.9,58,0.00,,,0.00,WUHU216HW,2013-03-07 23:53:00,
2013-03-07 18:58:00,44.8,31.0,30.25,North,0,1.3,3.1,58,0.00,,,0.00,WUHU216HW,2013-03-07 23:58:00,
2013-03-07 19:03:00,44.6,31.2,30.26,NW,315,1.1,4.0,59,0.00,,,0.00,WUHU216HW,2013-03-08 00:03:00,
2013-03-07 19:08:00,44.3,30.9,30.26,NNE,23,1.1,4.0,59,0.00,,,0.00,WUHU216HW,2013-03-08 00:08:00,
2013-03-07 19:13:00,44.3,30.9,30.26,North,0,1.1,3.8,59,0.00,,,0.00,WUHU216HW,2013-03-08 00:13:00,
2013-03-07 19:18:00,44.1,31.1,30.26,North,0,2.0,2.7,60,0.00,,,0.00,WUHU216HW,2013-03-08 00:18:00,
2013-03-07 19:23:00,43.7,30.8,30.26,NNW,338,2.5,2.7,60,0.00,,,0.00,WUHU216HW,2013-03-08 00:23:00,
2013-03-07 19:28:00,43.6,31.0,30.26,ENE,68,2.5,2.5,61,0.00,,,0.00,WUHU216HW,2013-03-08 00:28:00,
2013-03-07 19:33:00,43.4,30.8,30.26,NNW,338,1.1,2.5,61,0.00,,,0.00,WUHU216HW,2013-03-08 00:33:00,
2013-03-07 19:38:00,43.2,30.6,30.27,NNW,338,1.8,2.5,61,0.00,,,0.00,WUHU216HW,2013-03-08 00:38:00,
2013-03-07 19:43:00,43.0,30.4,30.27,NW,315,0.0,3.8,61,0.00,,,0.00,WUHU216HW,2013-03-08 00:43:00,
2013-03-07 19:48:00,42.8,30.7,30.27,NE,45,0.4,3.8,62,0.00,,,0.00,WUHU216HW,2013-03-08 00:48:00,
2013-03-07 19:54:00,42.7,30.9,30.27,North,0,3.4,4.0,63,0.00,,,0.00,WUHU216HW,2013-03-08 00:54:00,
2013-03-07 19:59:00,42.3,30.6,30.27,North,0,1.6,5.4,63,0.00,,,0.00,WUHU216HW,2013-03-08 00:59:00,
2013-03-07 20:04:00,42.3,30.6,30.27,North,0,1.1,5.4,63,0.00,,,0.00,WUHU216HW,2013-03-08 01:04:00,
2013-03-07 20:09:00,42.1,30.4,30.28,NE,45,1.8,8.9,63,0.00,,,0.00,WUHU216HW,2013-03-08 01:09:00,
2013-03-07 20:14:00,41.8,30.1,30.28,North,0,2.5,8.9,63,0.00,,,0.00,WUHU216HW,2013-03-08 01:14:00,
2013-03-07 20:19:00,41.6,30.2,30.28,West,270,1.8,4.7,64,0.00,,,0.00,WUHU216HW,2013-03-08 01:19:00,
2013-03-07 20:24:00,41.4,30.2,30.28,NW,315,0.4,3.6,64,0.00,,,0.00,WUHU216HW,2013-03-08 01:24:00,
2013-03-07 20:29:00,41.0,30.2,30.28,NNE,23,3.6,4.7,65,0.00,,,0.00,WUHU216HW,2013-03-08 01:29:00,
2013-03-07 20:34:00,40.9,30.0,30.28,NE,45,0.9,4.7,65,0.00,,,0.00,WUHU216HW,2013-03-08 01:34:00,
2013-03-07 20:39:00,40.7,29.8,30.28,SE,135,1.6,4.5,65,0.00,,,0.00,WUHU216HW,2013-03-08 01:39:00,
2013-03-07 20:44:00,40.3,29.4,30.28,East,90,0.4,4.7,65,0.00,,,0.00,WUHU216HW,2013-03-08 01:44:00,
2013-03-07 20:49:00,40.1,29.6,30.28,North,0,0.9,5.4,66,0.00,,,0.00,WUHU216HW,2013-03-08 01:49:00,
2013-03-07 20:54:00,40.0,29.4,30.28,North,0,0.7,5.4,66,0.00,,,0.00,WUHU216HW,2013-03-08 01:54:00,
2013-03-07 20:59:00,40.0,29.1,30.28,WNW,293,0.7,3.8,65,0.00,,,0.00,WUHU216HW,2013-03-08 01:59:00,
2013-03-07 21:04:00,39.6,28.7,30.28,WSW,248,0.9,4.7,65,0.00,,,0.00,WUHU216HW,2013-03-08 02:04:00,
2013-03-07 21:09:00,39.4,28.9,30.28,SW,225,0.0,4.7,66,0.00,,,0.00,WUHU216HW,2013-03-08 02:09:00,
2013-03-07 21:14:00,39.2,29.1,30.29,NNE,23,3.4,3.6,67,0.00,,,0.00,WUHU216HW,2013-03-08 02:14:00,
2013-03-07 21:19:00,39.2,29.1,30.29,NNE,23,0.4,3.8,67,0.00,,,0.00,WUHU216HW,2013-03-08 02:19:00,
2013-03-07 21:24:00,38.9,28.8,30.29,NNE,23,0.9,3.8,67,0.00,,,0.00,WUHU216HW,2013-03-08 02:24:00,
2013-03-07 21:29:00,38.7,28.6,30.28,North,0,1.8,3.6,67,0.00,,,0.00,WUHU216HW,2013-03-08 02:29:00,
2013-03-07 21:34:00,38.5,28.8,30.29,ENE,68,4.0,4.0,68,0.00,,,0.00,WUHU216HW,2013-03-08 02:34:00,
2013-03-07 21:39:00,38.5,28.8,30.29,West,270,1.6,4.0,68,0.00,,,0.00,WUHU216HW,2013-03-08 02:39:00,
2013-03-07 21:44:00,38.2,28.5,30.29,North,0,1.8,5.6,68,0.00,,,0.00,WUHU216HW,2013-03-08 02:44:00,
2013-03-07 21:49:00,38.0,28.4,30.29,NNE,23,1.8,5.8,68,0.00,,,0.00,WUHU216HW,2013-03-08 02:49:00,
2013-03-07 21:54:00,37.8,28.5,30.29,NNW,338,1.6,5.8,69,0.00,,,0.00,WUHU216HW,2013-03-08 02:54:00,
2013-03-07 21:59:00,37.6,28.5,30.29,North,0,1.8,4.0,69,0.00,,,0.00,WUHU216HW,2013-03-08 02:59:00,
2013-03-07 22:04:00,37.4,28.6,30.29,WNW,293,2.5,4.0,70,0.00,,,0.00,WUHU216HW,2013-03-08 03:04:00,
2013-03-07 22:09:00,37.3,28.4,30.29,NE,45,2.9,4.9,70,0.00,,,0.00,WUHU216HW,2013-03-08 03:09:00,
2013-03-07 22:14:00,37.1,28.3,30.29,North,0,1.1,4.9,70,0.00,,,0.00,WUHU216HW,2013-03-08 03:14:00,
2013-03-07 22:19:00,37.1,28.3,30.29,NNE,23,1.1,4.7,70,0.00,,,0.00,WUHU216HW,2013-03-08 03:19:00,
2013-03-07 22:24:00,36.9,28.1,30.29,NE,45,0.9,3.6,70,0.00,,,0.00,WUHU216HW,2013-03-08 03:24:00,
2013-03-07 22:29:00,36.7,27.9,30.29,NE,45,0.4,3.8,70,0.00,,,0.00,WUHU216HW,2013-03-08 03:29:00,
2013-03-07 22:34:00,36.5,27.7,30.29,ENE,68,1.1,6.3,70,0.00,,,0.00,WUHU216HW,2013-03-08 03:34:00,
2013-03-07 22:39:00,36.4,27.5,30.29,NE,45,0.4,6.3,70,0.00,,,0.00,WUHU216HW,2013-03-08 03:39:00,
2013-03-07 22:44:00,36.4,27.5,30.29,East,90,0.7,2.5,70,0.00,,,0.00,WUHU216HW,2013-03-08 03:44:00,
2013-03-07 22:49:00,36.4,27.5,30.29,North,0,0.4,2.7,70,0.00,,,0.00,WUHU216HW,2013-03-08 03:49:00,
2013-03-07 22:54:00,36.0,27.6,30.29,West,270,0.4,2.9,71,0.00,,,0.00,WUHU216HW,2013-03-08 03:54:00,
2013-03-07 22:59:00,36.0,27.6,30.29,NW,315,0.2,2.9,71,0.00,,,0.00,WUHU216HW,2013-03-08 03:59:00,
2013-03-07 23:04:00,35.8,27.4,30.28,North,0,1.3,2.5,71,0.00,,,0.00,WUHU216HW,2013-03-08 04:04:00,
2013-03-07 23:09:00,35.6,27.2,30.28,North,0,0.4,4.0,71,0.00,,,0.00,WUHU216HW,2013-03-08 04:09:00,
2013-03-07 23:14:00,35.6,27.2,30.28,North,0,1.1,4.7,71,0.00,,,0.00,WUHU216HW,2013-03-08 04:14:00,
2013-03-07 23:19:00,35.6,27.2,30.28,NNE,23,1.6,4.7,71,0.00,,,0.00,WUHU216HW,2013-03-08 04:19:00,
2013-03-07 23:24:00,35.5,27.3,30.28,North,0,2.0,3.4,72,0.00,,,0.00,WUHU216HW,2013-03-08 04:24:00,
2013-03-07 23:29:00,35.3,27.1,30.28,North,0,1.3,4.0,72,0.00,,,0.00,WUHU216HW,2013-03-08 04:29:00,
2013-03-07 23:34:00,35.1,26.9,30.28,North,0,0.7,4.0,72,0.00,,,0.00,WUHU216HW,2013-03-08 04:34:00,
2013-03-07 23:39:00,34.9,26.7,30.28,NNE,23,1.6,4.5,72,0.00,,,0.00,WUHU216HW,2013-03-08 04:39:00,
2013-03-07 23:44:00,34.9,26.7,30.28,North,0,3.8,4.5,72,0.00,,,0.00,WUHU216HW,2013-03-08 04:44:00,
2013-03-07 23:49:00,34.7,26.9,30.28,North,0,3.4,3.8,73,0.00,,,0.00,WUHU216HW,2013-03-08 04:49:00,
2013-03-07 23:54:00,34.7,26.9,30.28,North,0,0.0,3.4,73,0.00,,,0.00,WUHU216HW,2013-03-08 04:54:00,
2013-03-07 23:59:00,34.6,26.7,30.28,NNW,338,1.1,3.1,73,0.00,,,0.00,WUHU216HW,2013-03-08 04:59:00,